Time,TemperatureF,DewpointF,PressureIn,WindDirection,WindDirectionDegrees,WindSpeedMPH,WindSpeedGustMPH,Humidity,HourlyPrecipIn,Conditions,Clouds,dailyrainin,SoftwareType,DateUTC
2013-03-13 00:00:00,34.6,21.7,30.28,NNE,32,0.0,0.0,59,0.00,,,0.00,Wunderground v.1.15,2013-03-13 06:00:00,
2013-03-13 00:29:00,36.5,19.6,30.27,NNE,32,0.0,0.0,50,0.00,,,0.00,Wunderground v.1.15,2013-03-13 06:29:00,
2013-03-13 00:59:00,38.8,19.8,30.25,NNE,32,0.0,0.0,46,0.00,,,0.00,Wunderground v.1.15,2013-03-13 06:59:00,
2013-03-13 01:29:00,39.9,19.7,30.25,NNE,32,0.0,1.0,44,0.00,,,0.00,Wunderground v.1.15,2013-03-13 07:29:00,
2013-03-13 01:59:00,40.1,18.8,30.25,NE,38,1.0,7.0,42,0.00,,,0.00,Wunderground v.1.15,2013-03-13 07:59:00,
2013-03-13 02:29:00,38.8,19.8,30.26,NNE,13,1.0,1.0,46,0.00,,,0.00,Wunderground v.1.15,2013-03-13 08:29:00,
2013-03-13 02:59:00,37.6,19.7,30.27,NNE,13,0.0,0.0,48,0.00,,,0.00,Wunderground v.1.15,2013-03-13 08:59:00,
2013-03-13 03:29:00,36.5,20.5,30.26,NNE,13,0.0,0.0,52,0.00,,,0.00,Wunderground v.1.15,2013-03-13 09:29:00,
2013-03-13 04:29:00,37.5,21.0,30.25,NNE,23,0.0,0.0,51,0.00,,,0.00,Wunderground v.1.15,2013-03-13 10:29:00,
2013-03-13 04:59:00,38.5,18.4,30.25,NE,37,4.0,4.0,44,0.00,,,0.00,Wunderground v.1.15,2013-03-13 10:59:00,
2013-03-13 05:29:00,38.8,17.6,30.23,NNE,30,4.0,4.0,42,0.00,,,0.00,Wunderground v.1.15,2013-03-13 11:29:00,
2013-03-13 05:59:00,39.2,13.8,30.24,NE,41,4.0,5.0,35,0.00,,,0.00,Wunderground v.1.15,2013-03-13 11:59:00,
2013-03-13 06:29:00,39.5,15.3,30.29,NNE,21,3.0,3.0,37,0.00,,,0.00,Wunderground v.1.15,2013-03-13 12:29:00,
2013-03-13 06:59:00,39.9,15.7,30.27,NNE,18,2.0,3.0,37,0.00,,,0.00,Wunderground v.1.15,2013-03-13 12:59:00,
2013-03-13 07:29:00,40.1,15.9,30.29,NE,34,0.0,0.0,37,0.00,,,0.00,Wunderground v.1.15,2013-03-13 13:29:00,
2013-03-13 07:59:00,33.5,16.8,30.35,ESE,103,1.0,1.0,50,0.00,,,0.00,Wunderground v.1.15,2013-03-13 13:59:00,
2013-03-13 08:29:00,34.1,17.4,30.39,ESE,103,0.0,0.0,50,0.00,,,0.00,Wunderground v.1.15,2013-03-13 14:29:00,
2013-03-13 08:59:00,35.5,17.2,30.39,ESE,103,2.0,2.0,47,0.00,,,0.00,Wunderground v.1.15,2013-03-13 14:59:00,
2013-03-13 09:29:00,39.3,17.5,30.41,ESE,103,0.0,0.0,41,0.00,,,0.00,Wunderground v.1.15,2013-03-13 15:29:00,
2013-03-13 09:59:00,41.5,17.7,30.41,ESE,103,0.0,0.0,38,0.00,,,0.00,Wunderground v.1.15,2013-03-13 15:59:00,
2013-03-13 10:29:00,46.5,17.4,30.36,SSE,152,2.0,3.0,31,0.00,,,0.00,Wunderground v.1.15,2013-03-13 16:29:00,
2013-03-13 10:59:00,47.7,17.7,30.37,SSW,195,4.0,4.0,30,0.00,,,0.00,Wunderground v.1.15,2013-03-13 16:59:00,
2013-03-13 11:29:00,47.4,19.7,30.38,SSW,202,6.0,10.0,33,0.00,,,0.00,Wunderground v.1.15,2013-03-13 17:29:00,
2013-03-13 11:59:00,49.2,20.6,30.36,SSE,151,5.0,5.0,32,0.00,,,0.00,Wunderground v.1.15,2013-03-13 17:59:00,
2013-03-13 12:29:00,50.7,23.3,30.31,South,174,6.0,6.0,34,0.00,,,0.00,Wunderground v.1.15,2013-03-13 18:29:00,
2013-03-13 12:59:00,51.4,20.2,30.30,SSE,150,7.0,7.0,29,0.00,,,0.00,Wunderground v.1.15,2013-03-13 18:59:00,
2013-03-13 13:29:00,53.5,19.4,30.27,South,188,5.0,16.0,26,0.00,,,0.00,Wunderground v.1.15,2013-03-13 19:29:00,
2013-03-13 13:59:00,56.9,18.4,30.23,South,171,2.0,3.0,22,0.00,,,0.00,Wunderground v.1.15,2013-03-13 19:59:00,
2013-03-13 14:29:00,55.4,17.1,30.25,South,179,5.0,8.0,22,0.00,,,0.00,Wunderground v.1.15,2013-03-13 20:29:00,
2013-03-13 14:59:00,56.7,19.3,30.24,South,184,4.0,12.0,23,0.00,,,0.00,Wunderground v.1.15,2013-03-13 20:59:00,
2013-03-13 15:29:00,54.7,19.5,30.24,SSE,162,11.0,11.0,25,0.00,,,0.00,Wunderground v.1.15,2013-03-13 21:29:00,
2013-03-13 15:59:00,55.9,21.5,30.24,SSE,168,5.0,13.0,26,0.00,,,0.00,Wunderground v.1.15,2013-03-13 21:59:00,
2013-03-13 16:29:00,55.1,18.9,30.21,South,179,8.0,8.0,24,0.00,,,0.00,Wunderground v.1.15,2013-03-13 22:29:00,
2013-03-13 16:59:00,53.2,17.3,30.23,South,181,9.0,10.0,24,0.00,,,0.00,Wunderground v.1.15,2013-03-13 22:59:00,
2013-03-13 17:29:00,55.4,18.2,30.22,South,169,4.0,4.0,23,0.00,,,0.00,Wunderground v.1.15,2013-03-13 23:29:00,
2013-03-13 17:59:00,54.4,18.3,30.22,SW,217,7.0,7.0,24,0.00,,,0.00,Wunderground v.1.15,2013-03-13 23:59:00,
2013-03-13 18:29:00,53.2,17.3,30.21,NE,56,1.0,5.0,24,0.00,,,0.00,Wunderground v.1.15,2013-03-14 00:29:00,
2013-03-13 18:59:00,51.9,18.9,30.23,NNE,16,3.0,3.0,27,0.00,,,0.00,Wunderground v.1.15,2013-03-14 00:59:00,
2013-03-13 19:29:00,50.1,17.4,30.30,NE,40,1.0,1.0,27,0.00,,,0.00,Wunderground v.1.15,2013-03-14 01:29:00,
2013-03-13 19:59:00,48.2,21.1,30.33,NE,34,1.0,1.0,34,0.00,,,0.00,Wunderground v.1.15,2013-03-14 01:59:00,
2013-03-13 20:29:00,47.7,18.5,30.33,NW,319,1.0,1.0,31,0.00,,,0.00,Wunderground v.1.15,2013-03-14 02:29:00,
2013-03-13 20:59:00,46.5,19.6,30.34,SSE,157,1.0,1.0,34,0.00,,,0.00,Wunderground v.1.15,2013-03-14 02:59:00,
2013-03-13 21:29:00,44.8,21.3,30.31,SSW,209,0.0,0.0,39,0.00,,,0.00,Wunderground v.1.15,2013-03-14 03:29:00,
2013-03-13 21:59:00,41.8,21.5,30.33,SSW,209,0.0,0.0,44,0.00,,,0.00,Wunderground v.1.15,2013-03-14 03:59:00,
2013-03-13 22:29:00,39.1,20.5,30.31,SSW,209,0.0,0.0,47,0.00,,,0.00,Wunderground v.1.15,2013-03-14 04:29:00,
2013-03-13 22:59:00,38.3,20.3,30.31,SSW,209,0.0,2.0,48,0.00,,,0.00,Wunderground v.1.15,2013-03-14 04:59:00,
2013-03-13 23:29:00,37.0,21.0,30.33,SSW,209,0.0,0.0,52,0.00,,,0.00,Wunderground v.1.15,2013-03-14 05:29:00,